Temp
4 4 4 3 3 3 2 2 2 3 4 4 4 4 4 4 4 4 5 5 5 6 6 6 6 6 6 6 6 6 6 5 6 5 4 4 4 4 3 3 4 4 4
5 4 3 3 3 2 2 2 2 3 3 3 4 4 4 5 4 4 5 5 5 5 5 6 6 7 6 6 6 6 5 5 5 4 4 4 4 3 4 3 4 4 4
4 4 3 2 3 2 2 2 2 2 2 3 4 4 4 4 4 4 5 5 5 6 6 6 6 6 6 5 6 6 5 5 4 4 4 4 4 4 4 4 4 5 5
4 3 2 3 2 2 3 3 2 3 3 3 3 4 3 3 3 4 4 4 5 5 5 5 5 5 5 4 5 5 5 4 4 5 5 4 4 4 5 4 5 5 5
4 4 3 3 3 3 3 3 3 3 3 3 3 3 3 3 4 4 4 4 4 5 5 5 5 5 5 5 5 5 5 5 5 5 5 6 5 5 5 5 6 6 6
4 4 3 4 3 3 3 3 3 3 3 3 3 3 3 3 4 4 4 4 4 4 4 4 4 5 5 5 5 5 5 5 5 5 6 6 5 6 5 5 6 6 6
4 4 4 4 4 4 4 4 4 4 3 3 4 4 3 4 4 4 4 4 4 5 4 5 5 5 5 5 5 5 5 6 6 6 5 6 6 5 5 5 6 6 6
4 4 4 4 4 4 4 4 4 4 4 4 4 4 4 4 4 4 4 5 5 5 5 5 5 4 5 6 6 6 6 6 7 6 7 6 7 7 7 6 6 6 6
4 4 4 4 4 4 4 4 4 4 5 5 5 4 4 4 4 5 5 5 5 5 5 6 5 5 6 6 6 7 7 7 7 7 7 7 7 7 7 7 7 7 8
4 4 4 4 5 5 4 5 5 5 4 5 4 5 4 4 5 5 6 6 5 6 6 7 7 7 7 7 7 6 7 7 6 7 7 7 7 7 7 8 6 6 7
4 5 4 5 5 5 6 5 5 6 5 5 6 6 6 5 6 6 6 6 7 8 8 7 7 7 7 7 8 8 8 8 7 7 8 8 8 8 8 8 7 7 8
4 4 5 5 6 6 6 6 6 6 7 7 7 7 7 7 6 7 7 7 7 8 8 7 7 8 8 8 8 8 8 8 8 8 9 9 9 9 9 9 8 8 9
5 6 6 6 6 6 7 7 8 8 7 7 7 7 7 7 7 7 7 7 7 8 8 8 8 8 9 9 9 9 9 9 9 9 9 9 9 10 10 9 9 9 9
6 6 6 6 6 7 8 7 7 7 7 7 8 7 8 7 7 7 7 7 8 8 8 8 9 9 9 9 10 9 9 9 9 10 10 10 10 10 10 10 9 10 10
6 7 7 7 7 8 8 7 7 7 7 7 7 6 7 7 7 8 8 8 8 8 9 9 9 9 9 9 9 9 9 9 9 9 9 9 10 10 9 9 9 9 9
6 8 8 8 8 8 8 8 7 7 7 7 7 7 7 7 7 7 7 8 8 8 9 9 9 9 9 9 9 9 9 8 8 9 9 9 9 9 9 9 9 9 8
7 7 8 8 9 9 9 9 8 8 7 7 7 7 7 7 7 7 7 7 8 8 9 9 8 8 8 8 8 8 8 7 7 8 8 8 8 8 9 9 9 8 8
7 8 8 8 9 10 10 10 10 9 9 8 7 6 6 6 7 7 7 8 8 8 8 8 8 8 8 8 7 7 7 7 7 7 7 7 7 8 8 8 8 7 7
8 9 8 9 10 10 10 10 10 9 9 8 8 7 6 7 7 6 6 7 7 7 7 7 7 7 7 7 7 7 7 7 7 7 7 7 7 7 8 7 8 7 7
7 9 9 9 11 11 10 10 10 10 9 8 7 6 6 8 7 7 7 6 6 6 6 7 7 7 7 7 6 6 7 7 6 6 7 7 7 7 7 7 7 7 6
9 9 10 11 10 10 10 10 10 10 9 9 8 6 6 7 7 7 6 6 6 6 5 6 7 7 6 6 6 6 6 6 6 6 6 7 7 6 7 7 7 6 6
9 11 11 10 10 10 9 10 10 10 9 9 9 8 7 7 7 7 6 6 5 5 5 5 6 6 5 5 5 5 5 4 4 5 5 6 6 6 6 6 6 6 5
10 11 11 11 10 10 10 10 9 9 9 9 9 8 8 7 7 6 6 5 5 5 5 4 5 4 4 4 4 4 4 4 4 3 4 5 5 5 6 5 5 5 5
10 11 11 11 10 10 10 10 10 9 9 9 8 8 7 7 7 6 6 5 5 5 4 4 4 3 3 3 3 3 4 4 4 4 4 5 5 4 5 5 5 5 4
9 10 10 11 10 10 10 10 10 9 9 8 8 8 8 7 7 6 5 5 5 5 4 4 3 3 2 4 4 4 4 4 4 3 3 4 4 3 4 4 4 4 4
9 10 10 10 10 10 10 10 10 9 9 9 8 8 7 7 7 6 5 5 5 5 4 4 3 2 3 4 4 4 4 4 3 3 3 3 3 3 2 3 3 3 3
Height
1560 1557 1552 1549 1545 1541 1537 1533 1531 1529 1528 1528 1528 1527 1526 1525 1525 1524 1523 1522 1521 1521 1521 1521 1521 1521 1522 1520 1520 1518 1516 1515 1514 1513 1510 1508 1506 1503 1501 1500 1499 1499 1499
1561 1556 1553 1548 1544 1541 1537 1533 1530 1529 1529 1529 1529 1528 1527 1526 1525 1525 1526 1525 1525 1524 1523 1523 1522 1522 1521 1519 1518 1516 1515 1514 1513 1511 1509 1507 1505 1503 1501 1499 1500 1500 1499
1562 1558 1553 1548 1544 1541 1538 1533 1531 1531 1530 1530 1529 1530 1528 1527 1527 1526 1525 1525 1525 1525 1524 1523 1522 1520 1519 1518 1517 1515 1514 1513 1512 1511 1509 1507 1504 1502 1501 1501 1501 1500 1500
1562 1559 1554 1549 1545 1543 1540 1535 1534 1532 1532 1531 1531 1529 1528 1527 1525 1525 1525 1524 1523 1524 1523 1523 1521 1519 1518 1518 1517 1515 1514 1514 1513 1512 1509 1507 1505 1504 1503 1502 1502 1501 1500
1565 1560 1556 1551 1548 1544 1540 1538 1536 1535 1533 1532 1531 1530 1529 1528 1525 1524 1523 1523 1523 1523 1523 1521 1520 1519 1517 1516 1516 1516 1516 1515 1514 1512 1510 1509 1508 1506 1505 1504 1503 1501 1498
1566 1562 1559 1555 1551 1547 1543 1541 1539 1537 1535 1534 1532 1531 1530 1529 1527 1525 1524 1523 1523 1522 1523 1522 1521 1519 1518 1518 1518 1517 1517 1516 1514 1513 1512 1510 1509 1507 1506 1505 1503 1500 1500
1568 1566 1561 1557 1555 1551 1548 1545 1542 1540 1538 1536 1534 1532 1531 1529 1528 1526 1525 1524 1523 1523 1523 1523 1523 1522 1521 1521 1520 1519 1518 1516 1515 1514 1513 1512 1511 1509 1507 1505 1502 1500 1498
1571 1567 1564 1561 1557 1554 1552 1549 1547 1544 1542 1539 1537 1535 1533 1532 1530 1529 1527 1527 1527 1527 1526 1526 1525 1525 1524 1523 1521 1523 1522 1520 1518 1517 1515 1514 1512 1510 1507 1505 1501 1499 1497
1572 1569 1566 1564 1561 1558 1555 1553 1550 1548 1546 1544 1542 1540 1538 1536 1534 1533 1532 1531 1531 1531 1530 1529 1528 1529 1527 1526 1524 1526 1525 1524 1521 1519 1516 1514 1512 1510 1507 1504 1503 1500 1498
1575 1572 1568 1568 1565 1562 1559 1556 1555 1553 1551 1550 1547 1544 1543 1539 1539 1538 1536 1535 1535 1536 1537 1535 1533 1532 1531 1529 1528 1527 1526 1524 1521 1520 1518 1514 1513 1511 1507 1505 1503 1502 1499
1576 1573 1572 1571 1569 1567 1566 1563 1561 1558 1555 1553 1552 1550 1549 1546 1545 1543 1541 1540 1541 1542 1541 1541 1538 1536 1534 1533 1531 1529 1527 1525 1522 1518 1516 1515 1511 1509 1506 1504 1503 1502 1499
1578 1576 1576 1574 1573 1571 1568 1566 1564 1561 1558 1557 1556 1554 1554 1553 1550 1549 1548 1546 1545 1544 1544 1543 1541 1539 1537 1535 1533 1531 1528 1525 1521 1520 1518 1516 1514 1512 1509 1507 1503 1500 1497
1581 1580 1579 1578 1577 1574 1572 1571 1568 1566 1564 1563 1561 1558 1557 1557 1554 1552 1550 1550 1549 1548 1547 1545 1544 1541 1539 1537 1534 1532 1528 1527 1525 1522 1519 1516 1513 1511 1509 1506 1503 1499 1494
1584 1584 1583 1582 1579 1577 1577 1575 1571 1569 1567 1566 1564 1563 1562 1559 1557 1554 1552 1551 1550 1550 1548 1546 1545 1542 1540 1538 1536 1534 1532 1530 1527 1524 1520 1518 1515 1512 1509 1506 1503 1499 1495
1587 1587 1585 1584 1582 1580 1578 1576 1574 1572 1570 1568 1566 1565 1563 1561 1559 1557 1555 1553 1552 1551 1548 1548 1547 1545 1543 1541 1539 1536 1534 1531 1528 1526 1523 1519 1516 1513 1510 1507 1503 1500 1497
1590 1589 1588 1586 1584 1583 1580 1577 1576 1574 1572 1570 1568 1567 1565 1562 1560 1558 1556 1555 1554 1553 1551 1550 1549 1547 1545 1543 1541 1539 1536 1533 1530 1527 1524 1521 1518 1515 1511 1508 1504 1502 1499
1591 1591 1590 1588 1586 1584 1581 1580 1577 1576 1574 1572 1571 1568 1566 1563 1561 1560 1558 1557 1556 1555 1554 1553 1551 1550 1548 1546 1543 1541 1538 1535 1532 1529 1526 1523 1520 1516 1513 1509 1506 1503 1500
1593 1593 1591 1590 1587 1585 1583 1582 1581 1579 1578 1574 1572 1571 1568 1566 1563 1561 1560 1559 1559 1558 1556 1555 1553 1552 1550 1548 1545 1543 1540 1537 1534 1531 1528 1525 1521 1518 1514 1511 1508 1505 1501
1596 1594 1592 1590 1587 1586 1585 1584 1582 1581 1580 1578 1577 1574 1571 1568 1566 1564 1563 1562 1561 1560 1558 1557 1555 1553 1551 1549 1547 1544 1542 1539 1536 1533 1530 1527 1523 1520 1516 1513 1509 1506 1502
1596 1595 1592 1589 1588 1587 1586 1585 1583 1582 1581 1579 1577 1574 1572 1571 1570 1568 1566 1564 1563 1561 1559 1558 1557 1555 1553 1551 1548 1546 1543 1540 1537 1534 1531 1528 1525 1521 1518 1514 1511 1508 1504
1596 1593 1592 1590 1589 1588 1587 1586 1585 1583 1582 1580 1578 1576 1573 1571 1572 1570 1567 1566 1564 1563 1560 1559 1558 1556 1554 1552 1549 1547 1544 1541 1538 1535 1533 1530 1526 1523 1519 1516 1513 1509 1506
1596 1593 1592 1592 1591 1589 1588 1587 1585 1584 1582 1581 1580 1576 1575 1575 1573 1571 1569 1567 1566 1564 1562 1561 1560 1557 1555 1553 1550 1548 1544 1540 1538 1536 1534 1531 1528 1524 1521 1518 1514 1511 1508
1595 1594 1593 1592 1591 1589 1588 1587 1586 1584 1583 1582 1580 1579 1578 1576 1575 1572 1570 1569 1567 1565 1563 1562 1560 1558 1554 1553 1550 1548 1542 1539 1536 1536 1534 1532 1529 1525 1523 1519 1516 1513 1509
1595 1594 1593 1592 1591 1590 1589 1587 1586 1584 1583 1582 1581 1579 1578 1577 1575 1573 1572 1570 1568 1566 1564 1563 1561 1558 1555 1551 1549 1546 1543 1540 1537 1535 1532 1533 1530 1526 1524 1521 1518 1515 1511
1594 1594 1593 1591 1591 1590 1588 1587 1586 1585 1584 1582 1581 1580 1578 1577 1576 1574 1572 1570 1569 1567 1566 1564 1561 1558 1556 1551 1549 1546 1544 1541 1538 1536 1534 1533 1531 1527 1525 1522 1519 1516 1513
1593 1593 1592 1591 1589 1588 1588 1586 1585 1584 1583 1582 1580 1579 1578 1577 1575 1574 1572 1570 1569 1568 1566 1564 1561 1559 1554 1552 1549 1546 1544 1541 1539 1537 1535 1534 1531 1529 1525 1523 1520 1518 1514
Wind_Speed
17 18 15 16 19 16 17 14 12 11 6 7 8 10 9 7 8 9 10 13 11 8 7 4 6 6 4 5 5 6 7 7 11 10 14 12 12 15 15 7 4 5 5
17 15 15 18 18 15 17 14 12 8 7 9 9 10 11 8 9 7 5 6 5 6 8 8 5 5 7 8 8 8 5 6 10 12 14 10 14 13 7 5 2 2 7
15 15 21 20 14 15 17 15 10 9 6 6 7 8 8 7 7 4 5 3 4 5 6 7 8 5 6 9 10 8 6 12 12 9 14 13 13 10 4 5 4 4 5
14 20 19 18 15 17 16 18 11 8 8 8 8 7 8 8 7 5 4 4 2 3 4 6 6 8 9 8 8 9 10 9 6 8 8 8 9 7 8 3 6 5 9
14 18 22 16 16 15 12 11 14 10 10 10 7 7 9 8 11 6 6 5 4 3 4 4 7 10 8 7 8 8 7 7 8 8 7 7 5 5 5 6 6 6 4
16 15 17 21 21 19 15 13 12 11 9 8 8 8 8 6 9 7 5 5 3 3 2 5 7 9 9 10 9 7 6 6 8 7 8 8 7 6 5 7 7 8 9
13 14 14 20 21 20 16 17 18 17 15 12 11 9 9 9 10 9 7 7 7 10 10 12 13 12 11 11 13 14 12 10 10 10 10 8 8 8 8 10 10 10 7
12 14 16 19 15 12 11 14 15 16 15 18 20 18 17 15 13 15 15 13 14 14 13 13 14 11 11 17 13 9 10 9 13 8 8 6 7 8 11 9 13 13 8
13 14 14 13 13 14 15 14 16 14 16 21 21 21 20 11 13 16 19 18 16 14 13 13 14 9 14 13 10 8 8 7 11 10 9 9 8 8 14 16 11 11 12
11 11 10 12 15 21 20 20 24 20 17 15 14 16 18 21 14 18 17 19 12 12 13 16 16 15 14 13 12 11 8 9 7 7 14 11 9 10 11 15 9 11 12
8 6 7 9 11 12 17 14 14 14 11 9 12 16 20 20 21 16 15 13 10 11 11 10 12 13 12 12 12 13 12 10 13 14 13 13 12 17 11 11 12 13 11
6 7 7 10 11 15 15 16 17 16 18 18 16 16 17 19 20 21 19 14 14 13 10 8 10 12 13 15 15 14 15 17 12 12 10 13 12 12 14 13 14 15 12
10 9 7 10 11 16 19 16 14 15 16 16 17 16 19 13 11 11 11 15 14 12 11 13 12 14 13 11 14 15 15 15 15 15 13 17 11 13 12 15 15 14 18
7 8 10 11 14 13 15 14 17 14 15 13 15 15 13 12 14 16 13 13 11 9 6 6 11 10 11 12 14 14 13 13 14 14 15 14 14 14 14 16 17 17 17
9 7 8 8 9 9 14 14 15 18 12 11 9 9 11 10 11 11 10 11 9 9 11 9 10 11 10 11 13 14 14 14 14 15 15 15 15 16 16 17 16 16 17
7 7 9 8 5 8 7 9 13 18 18 14 11 9 9 9 10 9 7 6 5 8 11 9 10 11 11 12 13 14 15 16 15 15 15 15 16 16 18 17 16 16 16
6 6 10 9 8 9 8 3 4 13 13 17 18 13 11 10 10 11 14 14 12 10 8 9 10 11 11 12 13 14 16 17 16 15 16 16 17 17 18 17 18 17 18
6 8 8 6 8 9 8 8 7 8 9 11 15 17 16 18 15 11 12 11 9 9 9 9 10 11 11 12 13 14 15 17 16 16 17 17 17 18 18 18 18 18 18
7 6 7 7 8 6 7 7 7 8 8 8 9 11 13 16 17 17 14 10 10 9 9 10 10 10 11 12 13 14 16 16 17 16 17 18 18 18 18 18 18 18 19
4 6 9 8 6 6 6 6 7 7 8 8 8 11 7 9 10 10 11 10 10 9 9 10 10 10 11 12 12 13 14 15 16 16 17 17 18 17 17 18 18 18 18
6 6 6 5 5 5 6 6 7 7 7 8 6 13 11 12 9 9 9 10 10 10 10 10 10 10 10 12 12 13 13 14 15 17 17 17 17 17 17 16 17 17 18
5 6 5 5 5 6 4 6 6 7 7 6 6 9 13 9 8 8 8 8 8 9 9 10 10 10 11 12 12 13 12 14 14 15 16 16 17 16 17 17 17 17 18
4 5 5 5 5 6 5 6 6 6 6 6 6 5 6 7 7 7 7 7 8 8 9 9 10 10 11 11 11 12 13 15 14 15 12 16 16 16 16 17 16 17 18
8 3 4 4 6 4 5 5 6 7 7 6 6 5 5 6 6 7 6 6 6 7 8 8 9 11 11 10 11 11 13 14 14 9 13 14 15 16 15 16 16 16 17
4 4 4 5 5 5 5 5 5 6 6 6 5 5 5 5 5 6 5 5 6 6 7 7 8 9 10 12 12 13 13 14 13 11 14 14 13 15 14 14 15 15 16
7 7 6 7 6 5 5 5 5 5 5 5 5 4 4 4 4 5 5 5 4 5 6 6 8 9 10 12 13 13 13 13 12 11 15 12 13 13 15 14 14 14 15
Wind_Direction
355 350 357 356 350 349 353 348 346 350 358 19 31 31 35 33 28 24 28 48 58 56 36 16 33 19 358 355 347 323 342 351 322 316 330 328 327 327 332 335 85 47 340
354 357 2 339 347 354 0 354 2 5 17 34 20 23 15 21 20 13 15 0 3 359 8 27 33 7 359 346 358 338 344 345 335 330 329 328 328 330 345 65 23 316 324
6 358 342 1 12 9 9 9 12 18 15 23 36 2 5 9 357 358 338 325 319 336 340 347 2 337 334 355 355 353 358 334 341 348 342 338 333 341 82 32 353 329 332
7 358 4 3 12 17 22 29 29 41 38 22 358 5 11 14 13 24 19 350 8 344 343 4 327 322 320 351 341 359 5 6 14 4 345 349 10 58 72 342 336 349 325
8 355 16 18 20 16 10 11 28 40 34 47 30 38 49 38 38 84 65 49 48 40 76 11 321 339 348 14 29 33 41 30 352 346 14 44 36 38 13 4 351 323 338
6 23 11 34 36 35 36 31 43 44 44 45 44 38 42 20 20 25 51 42 49 85 76 14 14 36 47 51 52 39 29 16 4 18 24 38 29 21 353 342 349 354 22
18 17 18 38 34 35 41 49 55 57 53 47 51 50 43 37 45 47 50 50 67 77 76 72 63 56 61 62 55 39 38 46 54 42 27 25 22 8 352 350 343 341 338
16 12 21 23 28 26 32 41 45 46 41 51 62 62 56 50 61 63 62 73 80 83 71 66 54 42 76 70 56 39 40 36 49 51 47 31 28 14 358 357 336 350 357
8 11 21 26 29 26 34 43 43 41 65 73 67 57 49 50 74 77 78 84 80 68 58 52 70 60 79 66 56 72 61 38 19 31 26 28 13 12 17 9 351 4 6
9 8 31 39 51 60 60 70 86 71 73 59 48 46 51 55 89 77 87 77 64 64 58 60 65 67 64 54 45 30 24 5 4 347 9 336 13 1 9 1 355 352 350
12 30 40 53 43 42 54 56 47 37 33 41 52 52 55 58 62 68 59 49 50 70 68 58 48 48 42 32 32 28 12 356 353 18 3 345 19 11 350 356 340 340 331
38 65 65 60 50 54 52 48 39 46 55 56 58 61 62 54 54 56 66 74 66 63 56 46 29 45 37 31 25 20 14 14 354 5 10 3 2 354 349 346 333 326 325
72 74 75 72 55 51 45 46 46 40 46 47 50 57 59 52 41 33 56 52 43 54 52 50 45 38 30 23 17 20 19 15 9 9 10 358 353 350 352 355 346 335 319
84 77 64 48 55 52 50 41 40 38 32 38 44 37 45 37 43 46 49 36 36 35 14 0 5 15 12 20 21 18 11 6 360 1 358 354 356 354 351 352 349 350 346
81 56 72 56 64 47 39 52 41 33 31 36 50 28 32 23 20 18 26 40 56 46 24 27 19 20 19 16 15 12 9 7 4 359 357 354 354 351 353 350 350 350 347
75 76 57 37 6 26 355 6 39 32 34 34 30 28 11 14 15 19 27 21 28 30 22 18 18 18 16 13 12 10 8 4 2 358 358 356 355 352 352 353 354 355 352
49 40 53 24 18 7 17 32 10 22 24 21 21 25 22 22 25 41 52 47 52 41 30 25 22 18 16 13 11 8 8 4 8 8 4 1 357 355 356 356 357 356 355
45 31 18 1 9 10 20 28 28 28 24 12 8 18 30 33 31 41 57 36 34 33 31 26 21 17 14 10 10 6 9 5 7 6 4 2 360 359 358 358 358 357 356
25 6 352 349 353 19 20 24 24 23 22 19 12 14 14 20 26 28 36 39 33 30 30 23 20 17 13 10 8 6 8 5 5 6 4 2 1 1 360 359 358 359 1
357 1 351 337 17 19 18 18 19 17 15 12 13 16 19 37 23 23 24 31 32 27 28 27 17 17 11 9 7 8 6 5 4 6 5 2 1 1 0 359 360 359 360
343 316 336 358 12 9 9 11 12 12 12 11 1 13 50 45 20 21 27 29 29 26 23 28 18 15 12 9 10 9 5 3 4 4 5 2 359 1 360 360 360 1 359
317 340 358 1 1 1 11 9 7 7 7 9 12 352 30 27 20 20 25 27 26 24 23 25 23 16 15 12 11 5 1 2 4 2 4 0 358 1 360 0 1 0 0
335 346 1 357 349 358 8 358 359 1 6 4 8 7 11 15 16 19 18 22 22 23 23 23 25 18 16 16 14 4 1 5 7 357 3 360 357 359 0 360 2 1 3
319 314 342 351 3 3 350 359 358 2 11 2 3 5 5 11 12 10 15 18 22 18 24 19 20 20 13 14 8 7 3 10 14 24 32 360 356 0 2 0 4 2 3
292 313 292 330 329 332 338 343 347 350 349 354 359 1 355 5 3 3 4 14 12 19 13 19 18 14 9 357 1 2 6 10 16 33 36 14 360 358 8 2 4 3 5
261 266 292 290 322 323 320 324 325 333 337 344 347 348 349 355 352 354 355 357 10 2 15 6 9 3 354 353 359 3 5 8 18 39 32 8 2 357 9 7 6 6 7